Regional Weather Roundup
Issued by NWS Bismarck, ND

Home | Current Version | Previous Version | Text Only | Print | Product List | Glossary On
Versions: 1 2 3 4 5 6 7 8 9 10 11 12 13 14 15 16 17 18 19 20 21 22 23 24 25 26 27 28 29 30 31 32 33 34 35 36 37 38 39 40 41 42 43 44 45 46 47 48 49 50
000
ASUS43 KBIS 241502
RWRBIS

NWR BROADCAST TEXT
NATIONAL WEATHER SERVICE BISMARCK ND
1000 AM CDT SUN JUL 24 2016

NOTE: "FAIR" INDICATES FEW OR NO CLOUDS BELOW 12,000 FEET WITH NO
SIGNIFICANT WEATHER AND/OR OBSTRUCTIONS TO VISIBILITY.


CITY           SKY/WX    TMP DP  RH WIND       PRES   REMARKS
WILLISTON      SUNNY     71  54  54 W8        30.05R
MINOT          SUNNY     74  55  51 W17       29.98R
MINOT AFB      SUNNY     70  56  61 NW14G22   29.96S
BISMARCK       SUNNY     73  58  59 W8        30.04R
DICKINSON      SUNNY     70  52  52 W9        30.08R
GARRISON         N/A     70  58  65 NW10      30.02R
HETTINGER ARPT MOSUNNY   71  52  50 S7        30.12R
JAMESTOWN      SUNNY     72  60  66 W12       29.97R
CARRINGTON     FAIR      70  59  68 W15G24    29.98R
HAZEN          FAIR      68  57  68 W9        30.06R
OAKES            N/A    N/A N/A N/A MISG        N/A
STANLEY        FAIR      68  59  73 W7G13     30.05R
$$

CITY           SKY/WX    TMP DP  RH WIND       PRES   REMARKS
GRAND FORKS    MOSUNNY   74  63  68 W13       29.84S
GRAND FORKS AF SUNNY     73  63  71 W16       29.86R
DEVILS LAKE    SUNNY     68  60  75 W16       29.92R
FARGO          MOSUNNY   74  63  68 NW10      29.90R
GRAFTON        FAIR      72  64  78 W16       29.85S
GWINNER        FAIR      72  63  73 W13G20    29.96R
LANGDON        FAIR      70  63  78 W16       29.87S
ROLLA            N/A     68  57  68 NW12      29.92R
$$

CITY           SKY/WX    TMP DP  RH WIND       PRES   REMARKS
ABERDEEN       CLOUDY    72  60  66 W9        30.01F
MOBRIDGE       CLOUDY    71  57  61 CALM      30.06R
BUFFALO          N/A     72  49  44 S5        30.07R
RAPID CITY     CLOUDY    71  54  54 SW6       30.16R
GLASGOW        SUNNY     69  54  58 S5        30.05S
SIDNEY         SUNNY     69  58  67 S6        30.06S
WOLF POINT     SUNNY     70  52  52 CALM      30.06S
GLENDIVE       SUNNY     71  54  54 S6        30.09S
MILES CITY     SUNNY     72  49  44 SE8       30.09R
BAKER          SUNNY     72  48  42 S6        30.13R
$$

CITY           SKY/WX    TMP DP  RH WIND       PRES   REMARKS
BILLINGS       SUNNY     65  48  54 S7        30.13S
GREAT FALLS    SUNNY     66  39  37 SW7       30.13R
$$




USA.gov is the U.S. government's official web portal to all federal, state and local government web resources and services.